GW4544 Weather Reports


Display with metric or nautical units.
time (UTC)temp
F
wind
direction
speed
MPH
gust
MPH
rain 1hr
in
rain 24hr
in
rain mn
in
humidity
%
barometer
mb
20260507040342 63 19 0.0 0.0 0.00 0.00 0.00 67 1015.7
20260507035838 63 12 0.0 0.0 0.00 0.00 0.00 66 1015.4
20260507035334 63 25 0.0 0.0 0.00 0.00 0.00 66 1015.1
20260507034832 64 15 0.0 0.0 0.00 0.00 0.00 65 1015.2
20260507034329 64 6 0.0 0.0 0.00 0.00 0.00 65 1015.2
20260507033826 64 14 0.0 0.0 0.00 0.00 0.00 65 1015.2
20260507033324 64 19 0.0 0.0 0.00 0.00 0.00 64 1014.9
20260507032821 65 13 0.0 0.0 0.00 0.00 0.00 64 1014.9
20260507032317 65 14 0.0 0.0 0.00 0.00 0.00 63 1014.9
20260507031814 65 29 0.0 0.0 0.00 0.00 0.00 63 1015.1
20260507031311 66 18 0.0 0.0 0.00 0.00 0.00 62 1015.0
20260507030807 66 29 0.0 0.0 0.00 0.00 0.00 61 1014.8
20260507030305 66 20 0.0 0.0 0.00 0.00 0.00 60 1014.8
20260507025801 67 19 0.0 0.0 0.00 0.00 0.00 60 1014.8
20260507025259 67 15 0.0 0.0 0.00 0.00 0.00 59 1014.4
20260507024757 68 39 0.0 0.0 0.00 0.00 0.00 59 1014.5
20260507024254 68 24 0.0 0.0 0.00 0.00 0.00 58 1014.4
20260507023749 68 43 0.0 0.0 0.00 0.00 0.00 57 1014.4
20260507023246 69 27 0.0 0.0 0.00 0.00 0.00 57 1014.3
20260507022744 69 12 1.0 1.0 0.00 0.00 0.00 56 1014.4
20260507022240 70 19 0.0 1.0 0.00 0.00 0.00 54 1014.3
20260507021736 70 23 0.0 0.0 0.00 0.00 0.00 53 1014.2
20260507021231 71 24 0.0 0.0 0.00 0.00 0.00 52 1014.2
20260507020730 71 18 0.0 1.0 0.00 0.00 0.00 51 1014.0
20260507020226 72 24 0.0 0.0 0.00 0.00 0.00 50 1014.0
20260507015724 72 308 0.0 1.0 0.00 0.00 0.00 50 1013.9
20260507015221 73 17 0.0 1.0 0.00 0.00 0.00 49 1013.8
20260507014717 73 31 0.0 0.0 0.00 0.00 0.00 48 1013.8
20260507014214 73 20 0.0 0.0 0.00 0.00 0.00 47 1013.8
20260507013711 73 19 1.0 1.0 0.00 0.00 0.00 47 1013.6
20260507013208 74 333 1.0 1.0 0.00 0.00 0.00 46 1013.7
20260507012705 74 351 1.0 1.0 0.00 0.00 0.00 46 1013.6
20260507012201 74 5 0.0 1.0 0.00 0.00 0.00 46 1013.8
20260507011659 74 353 1.0 2.0 0.00 0.00 0.00 46 1013.5
20260507011155 75 13 2.0 3.0 0.00 0.00 0.00 45 1013.6
20260507010654 75 63 1.0 2.0 0.00 0.00 0.00 45 1013.5
20260507010150 75 17 1.0 2.0 0.00 0.00 0.00 45 1013.6
20260507005648 75 34 0.0 0.0 0.00 0.00 0.00 45 1013.6
20260507005144 75 359 1.0 1.0 0.00 0.00 0.00 46 1013.7
20260507004641 76 348 0.0 1.0 0.00 0.00 0.00 45 1013.6
20260507004139 76 28 0.0 1.0 0.00 0.00 0.00 44 1013.5
20260507003635 76 357 2.0 2.0 0.00 0.00 0.00 44 1013.4
20260507003130 76 12 1.0 1.0 0.00 0.00 0.00 45 1013.3
20260507002627 77 58 1.0 1.0 0.00 0.00 0.00 45 1013.4
20260507002122 77 355 1.0 2.0 0.00 0.00 0.00 44 1013.4
20260507001619 77 28 0.0 1.0 0.00 0.00 0.00 45 1013.2
20260507001117 78 355 1.0 1.0 0.00 0.00 0.00 44 1013.5
20260507000613 78 324 1.0 1.0 0.00 0.00 0.00 44 1013.2
20260507000108 80 13 1.0 1.0 0.00 0.00 0.00 42 1013.4
20260506235606 79 11 0.0 1.0 0.00 0.00 0.00 43 1013.2
20260506235106 79 79 1.0 1.0 0.00 0.00 0.00 43 1013.4
20260506234604 80 16 1.0 1.0 0.00 0.00 0.00 42 1013.2
20260506234101 80 9 1.0 2.0 0.00 0.00 0.00 42 1013.2
20260506233558 79 258 2.0 3.0 0.00 0.00 0.00 43 1013.3
20260506233054 80 7 0.0 1.0 0.00 0.00 0.00 42 1013.4
20260506232550 79 37 0.0 1.0 0.00 0.00 0.00 43 1013.4
20260506232046 80 7 0.0 1.0 0.00 0.00 0.00 42 1013.3
20260506231544 79 72 0.0 1.0 0.00 0.00 0.00 42 1013.4
20260506231042 80 336 1.0 2.0 0.00 0.00 0.00 42 1013.4
20260506230538 80 13 0.0 0.0 0.00 0.00 0.00 41 1013.4
20260506230035 80 16 0.0 0.0 0.00 0.00 0.00 41 1013.4
20260506225532 80 20 1.0 1.0 0.00 0.00 0.00 41 1013.3
20260506225028 80 14 0.0 1.0 0.00 0.00 0.00 41 1013.2
20260506224525 80 22 1.0 1.0 0.00 0.00 0.00 40 1013.5
20260506224022 82 32 1.0 2.0 0.00 0.00 0.00 39 1013.6
20260506223518 82 14 1.0 2.0 0.00 0.00 0.00 38 1013.7
20260506223014 82 32 1.0 2.0 0.00 0.00 0.00 37 1013.5
20260506222511 81 8 0.0 1.0 0.00 0.00 0.00 38 1013.7
20260506222008 82 349 1.0 3.0 0.00 0.00 0.00 37 1013.6
20260506221505 82 6 1.0 1.0 0.00 0.00 0.00 37 1013.8
20260506221003 81 6 0.0 0.0 0.00 0.00 0.00 38 1013.8
20260506220458 81 15 0.0 0.0 0.00 0.00 0.00 38 1013.8
20260506215955 81 9 2.0 2.0 0.00 0.00 0.00 37 1014.1
20260506215451 80 3 0.0 1.0 0.00 0.00 0.00 37 1014.1
20260506214947 81 274 1.0 2.0 0.00 0.00 0.00 38 1013.9
20260506214444 81 357 0.0 1.0 0.00 0.00 0.00 38 1014.0
20260506213942 81 38 1.0 2.0 0.00 0.00 0.00 38 1014.1
20260506213439 80 325 2.0 2.0 0.00 0.00 0.00 39 1014.2
20260506212936 80 320 2.0 2.0 0.00 0.00 0.00 38 1014.4
20260506212432 80 21 1.0 2.0 0.00 0.00 0.00 38 1014.4
20260506211932 79 17 1.0 1.0 0.00 0.00 0.00 39 1014.4
20260506211429 80 25 1.0 1.0 0.00 0.00 0.00 39 1014.4
20260506210926 80 28 0.0 0.0 0.00 0.00 0.00 39 1014.6
20260506210422 80 10 1.0 1.0 0.00 0.00 0.00 40 1014.4
20260506205920 78 45 2.0 3.0 0.00 0.00 0.00 40 1014.6
20260506205415 79 342 2.0 2.0 0.00 0.00 0.00 40 1014.9
20260506204912 78 19 1.0 1.0 0.00 0.00 0.00 41 1014.7
20260506204410 78 304 1.0 1.0 0.00 0.00 0.00 40 1014.8
20260506203907 78 8 0.0 1.0 0.00 0.00 0.00 41 1014.7
20260506203404 78 359 1.0 2.0 0.00 0.00 0.00 41 1014.8
20260506202901 78 359 3.0 3.0 0.00 0.00 0.00 42 1015.3
20260506202358 78 13 1.0 1.0 0.00 0.00 0.00 42 1015.1
20260506201854 77 340 1.0 1.0 0.00 0.00 0.00 42 1015.2
20260506201352 77 339 1.0 1.0 0.00 0.00 0.00 42 1015.1
20260506200848 77 17 0.0 0.0 0.00 0.00 0.00 41 1015.3
20260506200345 76 33 1.0 2.0 0.00 0.00 0.00 42 1015.3
20260506195841 78 346 1.0 2.0 0.00 0.00 0.00 40 1015.2
20260506195338 78 7 0.0 1.0 0.00 0.00 0.00 40 1015.4
20260506194835 77 15 0.0 0.0 0.00 0.00 0.00 41 1015.4
20260506194332 77 35 0.0 0.0 0.00 0.00 0.00 40 1015.6
20260506193829 76 27 0.0 1.0 0.00 0.00 0.00 41 1015.7
20260506193326 76 29 1.0 1.0 0.00 0.00 0.00 41 1015.8
20260506192822 75 359 0.0 2.0 0.00 0.00 0.00 43 1015.8
20260506192319 74 38 1.0 1.0 0.00 0.00 0.00 43 1015.7
20260506191816 77 49 1.0 1.0 0.00 0.00 0.00 41 1015.7
20260506191312 75 38 1.0 1.0 0.00 0.00 0.00 42 1015.9
20260506190809 75 11 1.0 2.0 0.00 0.00 0.00 42 1016.1
20260506190306 74 358 2.0 2.0 0.00 0.00 0.00 44 1015.9
20260506185803 75 49 0.0 1.0 0.00 0.00 0.00 42 1016.1
20260506185259 75 46 0.0 0.0 0.00 0.00 0.00 42 1016.3
20260506184757 74 38 0.0 0.0 0.00 0.00 0.00 44 1016.1
20260506184254 73 23 0.0 1.0 0.00 0.00 0.00 45 1016.4
20260506183751 73 35 0.0 1.0 0.00 0.00 0.00 45 1016.4
20260506183251 74 33 0.0 1.0 0.00 0.00 0.00 43 1016.3
20260506182749 73 23 2.0 2.0 0.00 0.00 0.00 45 1016.4
20260506182246 73 20 1.0 1.0 0.00 0.00 0.00 44 1016.5
20260506181744 71 9 0.0 0.0 0.00 0.00 0.00 45 1016.6
20260506181241 72 25 1.0 1.0 0.00 0.00 0.00 46 1016.7
20260506180738 72 31 0.0 0.0 0.00 0.00 0.00 44 1016.6
20260506180234 71 20 1.0 1.0 0.00 0.00 0.00 47 1016.6
20260506175730 71 18 1.0 2.0 0.00 0.00 0.00 47 1016.6
20260506175227 71 193 1.0 2.0 0.00 0.00 0.00 47 1016.7
20260506174725 70 96 0.0 1.0 0.00 0.00 0.00 47 1016.6
20260506174221 71 84 2.0 3.0 0.00 0.00 0.00 48 1016.6
20260506173719 70 80 0.0 0.0 0.00 0.00 0.00 47 1016.5
20260506173216 71 77 1.0 2.0 0.00 0.00 0.00 48 1016.5
20260506172713 69 76 1.0 1.0 0.00 0.00 0.00 48 1016.6
20260506172209 70 77 1.0 1.0 0.00 0.00 0.00 49 1016.5
20260506171707 68 84 0.0 1.0 0.00 0.00 0.00 50 1016.6
20260506171204 68 79 0.0 1.0 0.00 0.00 0.00 48 1016.6
20260506170702 67 75 1.0 1.0 0.00 0.00 0.00 51 1016.7
20260506170158 67 77 1.0 2.0 0.00 0.00 0.00 51 1016.6
20260506165657 68 78 1.0 1.0 0.00 0.00 0.00 49 1016.7
20260506165153 68 80 0.0 0.0 0.00 0.00 0.00 50 1016.7
20260506164650 69 74 1.0 2.0 0.00 0.00 0.00 49 1016.8
20260506164148 67 81 0.0 1.0 0.00 0.00 0.00 51 1016.9
20260506163644 64 81 0.0 0.0 0.00 0.00 0.00 54 1016.7
20260506163139 64 80 1.0 1.0 0.00 0.00 0.00 54 1016.8
20260506162635 64 79 0.0 1.0 0.00 0.00 0.00 52 1017.0
20260506162133 64 81 1.0 1.0 0.00 0.00 0.00 53 1016.8
20260506161630 64 80 0.0 1.0 0.00 0.00 0.00 55 1016.7
20260506161127 64 81 0.0 1.0 0.00 0.00 0.00 54 1016.7
20260506160624 64 81 0.0 0.0 0.00 0.00 0.00 55 1017.0
20260506160121 64 81 1.0 1.0 0.00 0.00 0.00 56 1016.9
20260506155620 63 83 0.0 1.0 0.00 0.00 0.00 57 1016.9
20260506155116 62 83 0.0 0.0 0.00 0.00 0.00 59 1016.8
20260506153218 62 82 0.0 0.0 0.00 0.00 0.00 59 1016.7
20260506152715 62 82 1.0 1.0 0.00 0.00 0.00 59 1016.8
20260506152212 61 86 1.0 1.0 0.00 0.00 0.00 61 1016.9
20260506151712 61 81 1.0 1.0 0.00 0.00 0.00 63 1016.8
20260506151208 61 84 1.0 1.0 0.00 0.00 0.00 64 1016.8
20260506150704 60 83 0.0 0.0 0.00 0.00 0.00 65 1016.9
20260506150201 59 79 0.0 0.0 0.00 0.00 0.00 67 1016.8
20260506145658 58 109 1.0 2.0 0.00 0.00 0.00 68 1017.1
20260506145154 58 84 0.0 1.0 0.00 0.00 0.00 69 1017.0
20260506144652 57 86 0.0 0.0 0.00 0.00 0.00 70 1017.0
20260506144149 56 87 0.0 0.0 0.00 0.00 0.00 72 1017.0
20260506143646 55 87 0.0 0.0 0.00 0.00 0.00 73 1016.7
20260506143144 54 85 0.0 0.0 0.00 0.00 0.00 75 1016.8
20260506142643 53 85 0.0 0.0 0.00 0.00 0.00 78 1016.9
20260506142140 52 94 0.0 0.0 0.00 0.00 0.00 80 1016.7
20260506141638 51 98 0.0 0.0 0.00 0.00 0.00 80 1016.6
20260506141136 51 85 0.0 0.0 0.00 0.00 0.00 82 1016.8
20260506140633 50 86 0.0 0.0 0.00 0.00 0.00 83 1016.7
20260506140130 49 86 0.0 0.0 0.00 0.00 0.00 84 1016.7
20260506135627 48 88 0.0 0.0 0.00 0.00 0.00 85 1016.7
20260506135123 48 85 0.0 0.0 0.00 0.00 0.00 86 1016.7
20260506134620 47 90 0.0 0.0 0.00 0.00 0.00 86 1016.5
20260506134115 47 88 0.0 0.0 0.00 0.00 0.00 87 1016.4
20260506133613 47 89 0.0 0.0 0.00 0.00 0.00 87 1016.3
20260506133110 47 88 0.0 0.0 0.00 0.00 0.00 87 1016.5
20260506132607 47 88 0.0 0.0 0.00 0.00 0.00 87 1016.3
20260506132104 47 90 0.0 0.0 0.00 0.00 0.00 88 1016.2
20260506131601 46 88 0.0 0.0 0.00 0.00 0.00 88 1016.2
20260506131057 46 88 0.0 0.0 0.00 0.00 0.00 88 1016.1
20260506130555 46 88 0.0 0.0 0.00 0.00 0.00 88 1016.2
20260506130052 46 89 0.0 0.0 0.00 0.00 0.00 88 1016.2
20260506125550 46 88 0.0 0.0 0.00 0.00 0.00 88 1016.1
20260506125048 47 89 0.0 0.0 0.00 0.00 0.00 87 1016.3
20260506124545 47 88 0.0 0.0 0.00 0.00 0.00 87 1016.1
20260506124043 47 88 0.0 0.0 0.00 0.00 0.00 86 1016.1
20260506123540 46 89 0.0 0.0 0.00 0.00 0.00 88 1016.1
20260506123039 46 89 0.0 0.0 0.00 0.00 0.00 87 1015.9
20260506122535 46 88 0.0 0.0 0.00 0.00 0.00 87 1016.0
20260506122033 46 88 0.0 0.0 0.00 0.00 0.00 87 1015.8
20260506121531 47 88 0.0 0.0 0.00 0.00 0.00 86 1015.7
20260506121026 47 92 0.0 0.0 0.00 0.00 0.00 86 1015.8
20260506120525 47 89 0.0 0.0 0.00 0.00 0.00 86 1016.0
20260506120022 47 88 0.0 0.0 0.00 0.00 0.00 86 1015.8
20260506115520 47 90 0.0 0.0 0.00 0.00 0.00 86 1016.1
20260506115018 48 91 0.0 0.0 0.00 0.00 0.00 85 1015.9
20260506114515 48 90 0.0 0.0 0.00 0.00 0.00 86 1015.9
20260506114014 47 90 0.0 0.0 0.00 0.00 0.00 86 1016.0
20260506113511 47 90 0.0 0.0 0.00 0.00 0.00 86 1016.0
20260506113008 47 90 0.0 0.0 0.00 0.00 0.00 86 1016.0
20260506112504 47 89 0.0 0.0 0.00 0.00 0.00 86 1015.9
20260506112002 47 90 0.0 0.0 0.00 0.00 0.00 86 1015.8
20260506111500 47 89 0.0 0.0 0.00 0.00 0.00 85 1016.0
20260506110956 47 93 0.0 0.0 0.00 0.00 0.00 85 1016.0
20260506110454 47 90 0.0 0.0 0.00 0.00 0.00 85 1015.8
20260506105951 48 91 0.0 0.0 0.00 0.00 0.00 86 1015.8
20260506105447 48 88 0.0 0.0 0.00 0.00 0.00 86 1015.8
20260506104945 48 86 0.0 0.0 0.00 0.00 0.00 86 1015.8
20260506104443 48 86 0.0 0.0 0.00 0.00 0.00 86 1015.7
20260506103941 47 86 0.0 0.0 0.00 0.00 0.00 86 1015.8
20260506103437 48 87 0.0 0.0 0.00 0.00 0.00 86 1015.9
20260506102934 48 87 0.0 0.0 0.00 0.00 0.00 85 1015.9
20260506102433 48 87 0.0 0.0 0.00 0.00 0.00 84 1015.8
20260506101929 49 87 0.0 0.0 0.00 0.00 0.00 83 1015.9
20260506101426 49 86 0.0 0.0 0.00 0.00 0.00 83 1015.9
20260506100923 49 87 0.0 0.0 0.00 0.00 0.00 83 1015.7
20260506100421 49 87 0.0 0.0 0.00 0.00 0.00 83 1015.7
20260506095919 50 86 0.0 0.0 0.00 0.00 0.00 82 1015.8
20260506095417 49 86 0.0 0.0 0.00 0.00 0.00 84 1015.8
20260506094913 50 86 0.0 0.0 0.00 0.00 0.00 84 1015.8
20260506094412 50 87 0.0 0.0 0.00 0.00 0.00 84 1015.9
20260506093909 50 87 0.0 0.0 0.00 0.00 0.00 83 1015.8
20260506093407 50 87 0.0 0.0 0.00 0.00 0.00 82 1016.0
20260506092904 50 86 0.0 0.0 0.00 0.00 0.00 82 1015.9
20260506092402 50 86 0.0 0.0 0.00 0.00 0.00 82 1015.9
20260506091858 50 87 0.0 0.0 0.00 0.00 0.00 82 1015.9
20260506091357 50 73 0.0 0.0 0.00 0.00 0.00 81 1015.9
20260506090853 51 74 0.0 0.0 0.00 0.00 0.00 81 1015.9
20260506090351 51 67 0.0 0.0 0.00 0.00 0.00 81 1015.9
20260506085848 51 70 0.0 0.0 0.00 0.00 0.00 81 1015.9
20260506085344 51 49 0.0 0.0 0.00 0.00 0.00 80 1015.9
20260506084841 51 31 0.0 1.0 0.00 0.00 0.00 80 1015.9
20260506084338 51 62 0.0 0.0 0.00 0.00 0.00 80 1016.0
20260506083834 51 41 1.0 1.0 0.00 0.00 0.00 79 1015.9
20260506083331 51 70 0.0 1.0 0.00 0.00 0.00 79 1016.1
20260506082829 51 68 0.0 0.0 0.00 0.00 0.00 78 1016.0
20260506082325 52 43 1.0 1.0 0.00 0.00 0.00 78 1016.1
20260506081821 51 85 0.0 1.0 0.00 0.00 0.00 77 1016.0
20260506081320 51 43 0.0 0.0 0.00 0.00 0.00 76 1016.0
20260506080817 51 44 0.0 0.0 0.00 0.00 0.00 76 1016.1
20260506080313 51 56 1.0 1.0 0.00 0.00 0.00 76 1016.3
20260506073258 51 35 0.0 0.0 0.00 0.00 0.00 76 1016.3
20260506072754 51 44 0.0 0.0 0.00 0.00 0.00 76 1016.4
20260506072252 51 41 0.0 0.0 0.00 0.00 0.00 76 1016.3
20260506071749 51 36 0.0 0.0 0.00 0.00 0.00 76 1016.1
20260506071247 51 33 0.0 0.0 0.00 0.00 0.00 76 1016.2
20260506070744 51 33 0.0 0.0 0.00 0.00 0.00 75 1016.2
20260506070241 52 32 0.0 0.0 0.00 0.00 0.00 75 1016.2
20260506062218 53 38 0.0 0.0 0.00 0.00 0.00 72 1015.7
20260506061714 53 40 0.0 0.0 0.00 0.00 0.00 72 1015.7
20260506061211 53 35 0.0 0.0 0.00 0.00 0.00 72 1015.7
20260506060710 53 35 0.0 0.0 0.00 0.00 0.00 72 1015.6
20260506060206 53 39 0.0 0.0 0.00 0.00 0.00 72 1015.7
20260506051133 54 25 0.0 0.0 0.00 0.00 0.00 70 1015.2
20260506050632 54 15 0.0 0.0 0.00 0.00 0.00 70 1015.0
20260506050128 54 33 0.0 0.0 0.00 0.00 0.00 72 1014.9
20260506045121 53 27 0.0 0.0 0.00 0.00 0.00 72 1014.8
20260506044619 53 21 0.0 0.0 0.00 0.00 0.00 73 1014.8
20260506044116 53 21 0.0 0.0 0.00 0.00 0.00 72 1014.7
20260506043613 53 21 0.0 0.0 0.00 0.00 0.00 71 1014.7
20260506043111 54 20 0.0 0.0 0.00 0.00 0.00 70 1014.6
20260506042610 54 20 0.0 0.0 0.00 0.00 0.00 69 1014.6
20260506042108 55 20 0.0 0.0 0.00 0.00 0.00 69 1014.7
20260506041606 55 25 0.0 0.0 0.00 0.00 0.00 68 1014.5
20260506041103 55 23 0.0 0.0 0.00 0.00 0.00 68 1014.4